CZ-6 R/B (49023 NORAD) Tracking and Keplerian Element Data

This shows tracking and keplerian element data for the satellite.

Feedback or suggestion? Click here.




ElementValue
Catalog49023
NameCZ-6 R/B
Epoch Orbit293
Epoch Day210.82597257
Epoch Year2021
RAAN355.333
Inclination45.0002
Eccentricity0.0174514
Argument of Perigee103.1534
Mean Anonmoly258.8851
Mean Motion14.38744527
Decay Rate-1.33E-06
L11 49023U 21064F 21210.82597257 -.00000133 00000-0 90341-5 0 9992
L22 49023 45.0002 355.3330 0174514 103.1534 258.8851 14.38744527 2938

Live tracking and technical data element details for CZ-6 R/B (NORAD 49023). CZ-6 R/B can be tracked NOW for your location showing map with azimuth and elevation plus other details from your city location.

Track the satellite on the map from your city or location and see movement details for azimuth, elevation, latitude, longitude, range, height, and movement on the map or in text.







IsCatalogInMostPopularTable: catalog: 49023, numindb: 4
Update: records affected: 1



GetName: 49023 CZ-6 R/B

Hit Count: updated at: Sat, 31 Jul 2021 14:20:12 GMT